TimeAWST,TemperatureF,Dew PointF,Humidity,Sea Level PressureIn,VisibilityMPH,Wind Direction,Wind SpeedMPH,Gust SpeedMPH,PrecipitationIn,Events,Conditions,WindDirDegrees,DateUTC
12:00 AM,84,68,49,29.74,,WSW,6.9,,,,,240,2014-02-18 16:00:00
12:00 AM,84.2,68.0,58,29.74,6.2,WSW,6.9,-,N/A,,Unknown,240,2014-02-18 16:00:00
12:30 AM,84.2,68.0,58,29.71,6.2,WSW,6.9,-,N/A,,Unknown,250,2014-02-18 16:30:00
1:00 AM,84.2,66.2,55,29.71,6.2,SW,5.8,-,N/A,,Unknown,220,2014-02-18 17:00:00
1:30 AM,84.2,66.2,55,29.71,6.2,WSW,5.8,-,N/A,,Unknown,250,2014-02-18 17:30:00
2:00 AM,84,64,42,29.71,,WNW,5.8,,,,,300,2014-02-18 18:00:00
2:00 AM,84.2,64.4,51,29.71,6.2,WNW,5.8,-,N/A,,Unknown,300,2014-02-18 18:00:00
2:30 AM,82.4,66.2,58,29.68,6.2,NW,4.6,-,N/A,,Unknown,320,2014-02-18 18:30:00
3:00 AM,83,65,44,29.70,,West,4.6,,,,,280,2014-02-18 19:00:00
3:00 AM,84.2,64.4,51,29.68,6.2,West,4.6,-,N/A,,Unknown,280,2014-02-18 19:00:00
3:30 AM,80.6,64.4,58,29.68,6.2,South,3.5,-,N/A,,Unknown,190,2014-02-18 19:30:00
4:00 AM,78.8,66.2,65,29.68,6.2,South,3.5,-,N/A,,Unknown,190,2014-02-18 20:00:00
4:30 AM,78.8,69.8,74,29.71,6.2,SSW,8.1,-,N/A,,Unknown,210,2014-02-18 20:30:00
4:56 AM,78.8,71.6,78,29.68,5.0,WSW,6.9,-,N/A,,Unknown,240,2014-02-18 20:56:00
5:00 AM,80,72,70,29.71,,WSW,6.9,,,,,240,2014-02-18 21:00:00
5:00 AM,78.8,71.6,78,29.71,5.0,WSW,6.9,-,N/A,,Unknown,240,2014-02-18 21:00:00
5:14 AM,80.6,71.6,74,29.71,6.2,WSW,6.9,-,N/A,,Unknown,240,2014-02-18 21:14:00
5:30 AM,80.6,71.6,74,29.71,6.2,WSW,8.1,-,N/A,,Unknown,240,2014-02-18 21:30:00
6:00 AM,80,73,75,29.72,2,WSW,6.9,,,,Haze,240,2014-02-18 22:00:00
6:00 AM,80.6,73.4,79,29.71,-9999.0,WSW,6.9,-,N/A,,Clear,240,2014-02-18 22:00:00
6:30 AM,78.8,73.4,83,29.71,-9999.0,SW,8.1,-,N/A,,Clear,220,2014-02-18 22:30:00
7:00 AM,80.6,73.4,79,29.74,-9999.0,SW,8.1,-,N/A,,Clear,230,2014-02-18 23:00:00
7:30 AM,82.4,73.4,74,29.74,-9999.0,SW,10.4,-,N/A,,Clear,220,2014-02-18 23:30:00
8:00 AM,85,73,60,29.76,,SW,9.2,,,,,230,2014-02-19 00:00:00
8:00 AM,86.0,73.4,66,29.74,-9999.0,SW,9.2,-,N/A,,Clear,230,2014-02-19 00:00:00
8:30 AM,87.8,71.6,58,29.74,-9999.0,SW,6.9,-,N/A,,Clear,220,2014-02-19 00:30:00
9:00 AM,91,69,39,29.77,12,ESE,5.8,,,,Haze,110,2014-02-19 01:00:00
9:00 AM,91.4,69.8,49,29.77,-9999.0,ESE,5.8,-,N/A,,Clear,110,2014-02-19 01:00:00
9:30 AM,89.6,73.4,59,29.77,-9999.0,East,8.1,-,N/A,,Clear,80,2014-02-19 01:30:00
10:00 AM,89.6,75.2,62,29.77,-9999.0,ENE,9.2,-,N/A,,Clear,60,2014-02-19 02:00:00
10:30 AM,89.6,73.4,59,29.77,-9999.0,ENE,10.4,-,N/A,,Clear,60,2014-02-19 02:30:00
11:00 AM,90,72,46,29.77,,NE,10.4,,,,,50,2014-02-19 03:00:00
11:00 AM,89.6,71.6,55,29.74,-9999.0,NE,10.4,-,N/A,,Clear,50,2014-02-19 03:00:00
11:30 AM,91.4,71.6,52,29.74,6.2,NE,10.4,-,N/A,,Partly Cloudy,40,2014-02-19 03:30:00
12:00 PM,92,75,49,29.75,9,NNE,11.5,,,,Haze,30,2014-02-19 04:00:00
12:00 PM,91.4,75.2,59,29.74,6.2,NNE,11.5,-,N/A,,Partly Cloudy,30,2014-02-19 04:00:00
12:30 PM,93.2,71.6,49,29.74,6.2,NE,11.5,-,N/A,,Partly Cloudy,40,2014-02-19 04:30:00
1:00 PM,95.0,69.8,44,29.71,6.2,NE,11.5,-,N/A,,Partly Cloudy,40,2014-02-19 05:00:00
1:30 PM,96.8,69.8,41,29.71,6.2,NNE,12.7,-,N/A,,Partly Cloudy,30,2014-02-19 05:30:00
2:00 PM,96,67,29,29.73,,NNE,12.7,,,,,30,2014-02-19 06:00:00
2:00 PM,96.8,66.2,37,29.71,6.2,NNE,12.7,-,N/A,,Partly Cloudy,30,2014-02-19 06:00:00
2:30 PM,98.6,66.2,35,29.71,6.2,NNE,11.5,-,N/A,,Unknown,20,2014-02-19 06:30:00
3:00 PM,103,51,10,29.70,19,NNE,12.7,,,,Partly Cloudy,20,2014-02-19 07:00:00
3:00 PM,102.2,50.0,17,29.68,6.2,NNE,12.7,-,N/A,,Partly Cloudy,20,2014-02-19 07:00:00
3:30 PM,102.2,53.6,20,29.68,6.2,North,11.5,-,N/A,,Unknown,10,2014-02-19 07:30:00
4:00 PM,100.4,59.0,25,29.68,6.2,NNE,10.4,-,N/A,,Unknown,20,2014-02-19 08:00:00
4:30 PM,100.4,60.8,27,29.68,6.2,North,9.2,-,N/A,,Unknown,10,2014-02-19 08:30:00
5:00 PM,102,62,18,29.70,,NW,12.7,,,,,310,2014-02-19 09:00:00
5:00 PM,102.2,62.6,27,29.68,6.2,NW,12.7,-,N/A,,Unknown,310,2014-02-19 09:00:00
5:30 PM,100.4,66.2,33,29.68,6.2,West,15.0,-,N/A,,Unknown,280,2014-02-19 09:30:00
6:00 PM,95,66,29,29.71,,WNW,15.0,,,,,290,2014-02-19 10:00:00
6:00 PM,95.0,66.2,39,29.71,6.2,WNW,15.0,-,N/A,,Unknown,290,2014-02-19 10:00:00
6:30 PM,91.4,69.8,49,29.71,6.2,West,13.8,-,N/A,,Unknown,280,2014-02-19 10:30:00
7:00 PM,87.8,71.6,58,29.71,6.2,WSW,11.5,-,N/A,,Unknown,250,2014-02-19 11:00:00
7:30 PM,86.0,69.8,58,29.71,6.2,West,11.5,-,N/A,,Unknown,260,2014-02-19 11:30:00
8:00 PM,85,72,57,29.74,,West,12.7,,,,,260,2014-02-19 12:00:00
8:00 PM,86.0,71.6,62,29.71,6.2,West,12.7,-,N/A,,Unknown,260,2014-02-19 12:00:00
8:30 PM,84.2,73.4,70,29.74,6.2,WSW,10.4,-,N/A,,Unknown,250,2014-02-19 12:30:00
9:00 PM,84,72,60,29.75,,SSW,9.2,,,,,200,2014-02-19 13:00:00
9:00 PM,84.2,71.6,66,29.74,6.2,SSW,9.2,-,N/A,,Unknown,200,2014-02-19 13:00:00
9:30 PM,82.4,73.4,74,29.77,6.2,SSW,9.2,-,N/A,,Unknown,210,2014-02-19 13:30:00
10:00 PM,82.4,73.4,74,29.77,6.2,SW,9.2,-,N/A,,Unknown,220,2014-02-19 14:00:00
10:30 PM,82.4,75.2,79,29.77,6.2,SW,8.1,-,N/A,,Unknown,230,2014-02-19 14:30:00
11:00 PM,81,74,75,29.80,,SW,5.8,,,,,220,2014-02-19 15:00:00
11:00 PM,80.6,75.2,84,29.77,6.2,SW,5.8,-,N/A,,Unknown,220,2014-02-19 15:00:00
11:30 PM,80.6,75.2,84,29.80,6.2,SSE,5.8,-,N/A,,Unknown,150,2014-02-19 15:30:00